| time (UTC) | temp C | wind direction | speed KPH | gust KPH | rain 1hr cm | rain 24hr cm | rain mn cm | humidity % | barometer mb |
| 20260507081632 | 8 | 163 | 0.0 | 0.0 | 0.10 | 1.80 | 0.00 | 99 | 1008.1 |
| 20260507080628 | 8 | 311 | 3.2 | 4.8 | 0.10 | 1.63 | 0.00 | 99 | 1008.2 |
| 20260507075617 | 8 | 207 | 3.2 | 3.2 | 0.10 | 1.60 | 0.00 | 99 | 1008.2 |
| 20260507074608 | 8 | 56 | 3.2 | 3.2 | 0.00 | 1.55 | 0.00 | 99 | 1007.9 |
| 20260507073601 | 9 | 88 | 1.6 | 3.2 | 0.00 | 1.55 | 0.00 | 99 | 1007.9 |
| 20260507072552 | 9 | 192 | 0.0 | 0.0 | 0.00 | 1.55 | 0.00 | 99 | 1007.7 |
| 20260507071545 | 9 | 320 | 1.6 | 3.2 | 0.00 | 1.55 | 0.00 | 99 | 1007.8 |
| 20260507070532 | 9 | 112 | 0.0 | 0.0 | 0.00 | 1.55 | 0.00 | 99 | 1007.6 |
| 20260507065529 | 8 | 176 | 0.0 | 0.0 | 0.10 | 1.55 | 0.00 | 99 | 1007.6 |
| 20260507064520 | 8 | 225 | 1.6 | 3.2 | 0.10 | 1.55 | 0.00 | 99 | 1007.7 |
| 20260507063456 | 8 | 169 | 0.0 | 1.6 | 0.10 | 1.52 | 0.00 | 99 | 1007.3 |
| 20260507062432 | 8 | 251 | 1.6 | 1.6 | 0.10 | 1.52 | 0.00 | 99 | 1007.3 |
| 20260507061424 | 8 | 173 | 0.0 | 0.0 | 0.00 | 1.50 | 0.00 | 99 | 1007.2 |
| 20260507060417 | 8 | 249 | 0.0 | 0.0 | 0.00 | 1.50 | 0.00 | 99 | 1007.1 |
| 20260507054401 | 8 | 132 | 0.0 | 0.0 | 0.10 | 1.47 | 0.00 | 99 | 1006.9 |
| 20260507053352 | 8 | 240 | 0.0 | 0.0 | 0.10 | 1.45 | 0.00 | 99 | 1006.8 |
| 20260507052345 | 8 | 148 | 0.0 | 1.6 | 0.10 | 1.42 | 0.00 | 99 | 1006.6 |
| 20260507051332 | 8 | 166 | 1.6 | 3.2 | 0.10 | 1.40 | 0.00 | 99 | 1006.5 |
| 20260507050329 | 8 | 244 | 1.6 | 3.2 | 0.00 | 1.37 | 0.00 | 99 | 1006.4 |
| 20260507045320 | 8 | 189 | 0.0 | 0.0 | 0.10 | 1.37 | 0.00 | 99 | 1006.4 |
| 20260507044256 | 8 | 146 | 3.2 | 4.8 | 0.10 | 1.37 | 0.00 | 99 | 1006.1 |
| 20260507043232 | 8 | 196 | 0.0 | 3.2 | 0.10 | 1.37 | 0.00 | 99 | 1006.2 |
| 20260507042225 | 8 | 296 | 3.2 | 4.8 | 0.10 | 1.32 | 0.00 | 99 | 1005.9 |
| 20260507041217 | 8 | 164 | 1.6 | 1.6 | 0.10 | 1.27 | 0.00 | 99 | 1005.9 |
| 20260507040208 | 8 | 123 | 1.6 | 1.6 | 0.00 | 1.24 | 0.00 | 99 | 1005.8 |
| 20260507035201 | 8 | 153 | 1.6 | 1.6 | 0.00 | 1.24 | 0.00 | 99 | 1005.7 |
| 20260507034152 | 8 | 149 | 0.0 | 0.0 | 0.00 | 1.24 | 0.00 | 99 | 1005.9 |
| 20260507033145 | 8 | 222 | 3.2 | 3.2 | 0.00 | 1.24 | 0.00 | 99 | 1005.9 |
| 20260507032132 | 8 | 251 | 3.2 | 4.8 | 0.00 | 1.24 | 0.00 | 99 | 1005.8 |
| 20260507031129 | 8 | 181 | 0.0 | 1.6 | 0.00 | 1.24 | 0.00 | 99 | 1006.0 |
| 20260507030120 | 8 | 161 | 0.0 | 1.6 | 0.00 | 1.24 | 0.00 | 99 | 1006.0 |
| 20260507025056 | 8 | 256 | 1.6 | 1.6 | 0.10 | 1.22 | 0.00 | 99 | 1005.8 |
| 20260507024048 | 8 | 256 | 1.6 | 3.2 | 0.10 | 1.22 | 0.00 | 99 | 1005.7 |
| 20260507023024 | 9 | 161 | 0.0 | 0.0 | 0.10 | 1.19 | 0.00 | 99 | 1006.0 |
| 20260507022000 | 9 | 203 | 3.2 | 4.8 | 0.10 | 1.14 | 0.00 | 99 | 1006.0 |
| 20260507020952 | 9 | 123 | 0.0 | 0.0 | 0.10 | 1.04 | 0.00 | 99 | 1005.7 |
| 20260507015944 | 9 | 174 | 1.6 | 1.6 | 0.10 | 0.91 | 0.00 | 99 | 1005.9 |
| 20260507014936 | 10 | 302 | 1.6 | 1.6 | 0.10 | 0.74 | 0.00 | 99 | 1005.7 |
| 20260507013928 | 10 | 268 | 1.6 | 3.2 | 0.10 | 0.58 | 0.00 | 99 | 1005.7 |
| 20260507012920 | 10 | 167 | 3.2 | 6.4 | 0.10 | 0.46 | 0.00 | 99 | 1005.4 |
| 20260507011912 | 10 | 263 | 0.0 | 1.6 | 0.10 | 0.41 | 0.00 | 99 | 1005.6 |
| 20260507010904 | 10 | 128 | 1.6 | 1.6 | 0.10 | 0.38 | 0.00 | 99 | 1005.5 |
| 20260507005856 | 10 | 119 | 3.2 | 3.2 | 0.10 | 0.33 | 0.00 | 99 | 1005.5 |
| 20260507004848 | 10 | 166 | 0.0 | 0.0 | 0.10 | 0.28 | 0.00 | 99 | 1005.5 |
| 20260507003824 | 10 | 162 | 0.0 | 0.0 | 0.10 | 0.25 | 0.00 | 99 | 1005.5 |
| 20260507002817 | 10 | 147 | 0.0 | 0.0 | 0.10 | 0.20 | 0.00 | 99 | 1005.5 |
| 20260507001808 | 10 | 168 | 0.0 | 0.0 | 0.10 | 0.20 | 0.00 | 99 | 1005.4 |
| 20260507000801 | 10 | 165 | 0.0 | 0.0 | 0.00 | 0.18 | 0.00 | 99 | 1005.4 |
| 20260506235752 | 10 | 169 | 0.0 | 0.0 | 0.10 | 0.18 | 0.00 | 99 | 1005.5 |
| 20260506234745 | 10 | 153 | 1.6 | 3.2 | 0.10 | 0.15 | 0.00 | 99 | 1005.5 |
| 20260506233736 | 10 | 189 | 0.0 | 0.0 | 0.10 | 0.13 | 0.00 | 99 | 1005.5 |
| 20260506232729 | 10 | 191 | 1.6 | 1.6 | 0.10 | 0.13 | 0.00 | 99 | 1005.5 |
| 20260506231720 | 10 | 154 | 0.0 | 0.0 | 0.10 | 0.10 | 0.00 | 99 | 1005.3 |
| 20260506230656 | 10 | 209 | 1.6 | 3.2 | 0.00 | 0.08 | 0.00 | 99 | 1005.3 |
| 20260506225648 | 10 | 160 | 0.0 | 0.0 | 0.10 | 0.05 | 0.00 | 99 | 1005.2 |
| 20260506224624 | 10 | 181 | 0.0 | 0.0 | 0.10 | 0.05 | 0.00 | 99 | 1005.2 |
| 20260506223617 | 10 | 176 | 0.0 | 0.0 | 0.10 | 0.05 | 0.00 | 99 | 1005.3 |
| 20260506222608 | 11 | 199 | 0.0 | 0.0 | 0.10 | 0.05 | 0.00 | 99 | 1005.3 |
| 20260506221544 | 11 | 154 | 0.0 | 1.6 | 0.10 | 0.05 | 0.00 | 99 | 1005.2 |
| 20260506220536 | 11 | 166 | 0.0 | 0.0 | 0.10 | 0.03 | 0.00 | 99 | 1005.2 |
| 20260506215528 | 10 | 176 | 0.0 | 0.0 | 0.10 | 0.69 | 0.00 | 99 | 1005.3 |
| 20260506214520 | 11 | 192 | 0.0 | 0.0 | 0.10 | 0.43 | 0.00 | 99 | 1005.4 |
| 20260506213512 | 11 | 165 | 0.0 | 0.0 | 0.10 | 0.38 | 0.00 | 99 | 1005.3 |
| 20260506212504 | 11 | 141 | 0.0 | 1.6 | 0.10 | 0.33 | 0.00 | 99 | 1005.0 |
| 20260506211456 | 11 | 251 | 0.0 | 0.0 | 0.10 | 0.33 | 0.00 | 99 | 1005.1 |
| 20260506210448 | 11 | 157 | 0.0 | 0.0 | 0.10 | 0.28 | 0.00 | 99 | 1004.8 |
| 20260506205440 | 11 | 144 | 0.0 | 0.0 | 0.10 | 0.25 | 0.00 | 98 | 1005.0 |
| 20260506204432 | 11 | 169 | 0.0 | 0.0 | 0.10 | 0.25 | 0.00 | 99 | 1005.1 |
| 20260506203424 | 11 | 165 | 1.6 | 1.6 | 0.00 | 0.08 | 0.00 | 99 | 1004.9 |
| 20260506202416 | 11 | 165 | 1.6 | 1.6 | 0.00 | 0.08 | 0.00 | 98 | 1005.0 |
| 20260506201408 | 11 | 165 | 0.0 | 1.6 | 0.00 | 0.08 | 0.00 | 96 | 1005.0 |
| 20260506200400 | 11 | 170 | 1.6 | 1.6 | 0.00 | 0.08 | 0.00 | 95 | 1004.9 |
| 20260506195352 | 11 | 169 | 0.0 | 0.0 | 0.00 | 0.08 | 0.00 | 94 | 1004.6 |
| 20260506194344 | 12 | 169 | 0.0 | 0.0 | 0.00 | 0.08 | 0.00 | 93 | 1004.6 |
| 20260506193336 | 12 | 170 | 1.6 | 1.6 | 0.00 | 0.08 | 0.00 | 92 | 1004.5 |
| 20260506192328 | 12 | 170 | 0.0 | 0.0 | 0.00 | 0.08 | 0.00 | 92 | 1004.4 |
| 20260506191320 | 12 | 171 | 0.0 | 0.0 | 0.00 | 0.08 | 0.00 | 91 | 1004.2 |
| 20260506190313 | 12 | 162 | 0.0 | 1.6 | 0.00 | 0.08 | 0.00 | 92 | 1004.1 |
| 20260506185306 | 12 | 160 | 1.6 | 1.6 | 0.00 | 0.08 | 0.00 | 91 | 1003.8 |
| 20260506184256 | 12 | 162 | 0.0 | 1.6 | 0.00 | 0.08 | 0.00 | 93 | 1003.8 |
| 20260506183248 | 12 | 161 | 1.6 | 1.6 | 0.00 | 0.08 | 0.00 | 92 | 1003.9 |
| 20260506182224 | 12 | 154 | 3.2 | 3.2 | 0.00 | 0.08 | 0.00 | 91 | 1003.7 |
| 20260506181217 | 12 | 166 | 1.6 | 3.2 | 0.00 | 0.08 | 0.00 | 91 | 1003.8 |
| 20260506180208 | 13 | 166 | 0.0 | 0.0 | 0.00 | 0.08 | 0.00 | 88 | 1003.7 |
| 20260506175201 | 13 | 165 | 1.6 | 1.6 | 0.00 | 0.08 | 0.00 | 85 | 1003.7 |
| 20260506174152 | 13 | 163 | 0.0 | 0.0 | 0.00 | 0.08 | 0.00 | 82 | 1003.8 |
| 20260506173145 | 14 | 164 | 0.0 | 0.0 | 0.00 | 0.08 | 0.00 | 82 | 1003.7 |
| 20260506172132 | 14 | 183 | 0.0 | 0.0 | 0.00 | 0.08 | 0.00 | 81 | 1003.4 |
| 20260506171129 | 15 | 200 | 0.0 | 1.6 | 0.00 | 0.08 | 0.00 | 79 | 1003.5 |
| 20260506170120 | 15 | 234 | 0.0 | 1.6 | 0.00 | 0.08 | 0.00 | 77 | 1003.3 |
| 20260506165056 | 15 | 177 | 0.0 | 0.0 | 0.00 | 0.08 | 0.00 | 76 | 1003.2 |
| 20260506164033 | 15 | 180 | 1.6 | 1.6 | 0.00 | 0.08 | 0.00 | 74 | 1003.2 |
| 20260506163024 | 15 | 165 | 0.0 | 0.0 | 0.00 | 0.08 | 0.00 | 73 | 1003.6 |
| 20260506162017 | 15 | 157 | 0.0 | 0.0 | 0.00 | 0.08 | 0.00 | 73 | 1003.5 |
| 20260506161008 | 15 | 208 | 1.6 | 1.6 | 0.00 | 0.08 | 0.00 | 71 | 1003.4 |
| 20260506160001 | 16 | 179 | 0.0 | 0.0 | 0.00 | 0.08 | 0.00 | 72 | 1003.6 |
| 20260506154952 | 16 | 11 | 0.0 | 0.0 | 0.00 | 0.08 | 0.00 | 71 | 1003.4 |
| 20260506153945 | 16 | 163 | 1.6 | 3.2 | 0.00 | 0.08 | 0.00 | 70 | 1003.5 |
| 20260506152932 | 17 | 202 | 3.2 | 3.2 | 0.00 | 0.08 | 0.00 | 68 | 1003.7 |
| 20260506151912 | 16 | 131 | 0.0 | 0.0 | 0.00 | 0.08 | 0.00 | 68 | 1003.7 |
| 20260506150904 | 17 | 330 | 1.6 | 3.2 | 0.00 | 0.08 | 0.00 | 67 | 1003.7 |
| 20260506145856 | 16 | 188 | 1.6 | 1.6 | 0.00 | 0.08 | 0.00 | 69 | 1003.7 |
| 20260506144833 | 16 | 184 | 0.0 | 1.6 | 0.00 | 0.08 | 0.00 | 68 | 1003.9 |
| 20260506143824 | 17 | 244 | 3.2 | 4.8 | 0.00 | 0.08 | 0.00 | 67 | 1003.8 |
| 20260506142817 | 17 | 254 | 1.6 | 3.2 | 0.00 | 0.08 | 0.00 | 64 | 1003.8 |
| 20260506141808 | 17 | 209 | 3.2 | 4.8 | 0.00 | 0.08 | 0.00 | 65 | 1003.9 |
| 20260506140801 | 17 | 147 | 0.0 | 1.6 | 0.00 | 0.08 | 0.00 | 69 | 1003.8 |
| 20260506135752 | 17 | 181 | 4.8 | 6.4 | 0.00 | 0.08 | 0.00 | 67 | 1003.8 |
| 20260506134745 | 16 | 186 | 4.8 | 6.4 | 0.00 | 0.08 | 0.00 | 67 | 1003.7 |
| 20260506133736 | 16 | 183 | 1.6 | 1.6 | 0.00 | 0.08 | 0.00 | 69 | 1003.9 |
| 20260506132729 | 16 | 116 | 1.6 | 1.6 | 0.00 | 0.08 | 0.00 | 71 | 1004.1 |
| 20260506131720 | 16 | 136 | 0.0 | 0.0 | 0.00 | 0.08 | 0.00 | 72 | 1004.3 |
| 20260506130657 | 16 | 219 | 1.6 | 3.2 | 0.00 | 0.08 | 0.00 | 73 | 1004.0 |
| 20260506125648 | 16 | 273 | 8.0 | 9.7 | 0.00 | 0.08 | 0.00 | 72 | 1004.3 |
| 20260506124624 | 16 | 242 | 0.0 | 1.6 | 0.00 | 0.08 | 0.00 | 70 | 1004.3 |
| 20260506123617 | 16 | 173 | 1.6 | 4.8 | 0.00 | 0.08 | 0.00 | 71 | 1004.3 |
| 20260506122608 | 16 | 115 | 1.6 | 3.2 | 0.00 | 0.08 | 0.00 | 71 | 1004.4 |
| 20260506121601 | 16 | 273 | 0.0 | 0.0 | 0.00 | 0.08 | 0.00 | 76 | 1004.4 |
| 20260506120552 | 15 | 288 | 1.6 | 3.2 | 0.00 | 0.08 | 0.00 | 76 | 1004.2 |
| 20260506115545 | 15 | 146 | 0.0 | 1.6 | 0.00 | 0.08 | 0.00 | 76 | 1004.4 |
| 20260506114532 | 16 | 191 | 3.2 | 4.8 | 0.00 | 0.08 | 0.00 | 74 | 1004.5 |
| 20260506113529 | 16 | 100 | 0.0 | 1.6 | 0.00 | 0.08 | 0.00 | 76 | 1004.5 |
| 20260506112520 | 15 | 114 | 0.0 | 1.6 | 0.00 | 0.08 | 0.00 | 79 | 1004.4 |
| 20260506111456 | 14 | 170 | 0.0 | 1.6 | 0.00 | 0.08 | 0.00 | 83 | 1004.6 |
| 20260506110448 | 14 | 276 | 0.0 | 0.0 | 0.00 | 0.08 | 0.00 | 84 | 1004.5 |
| 20260506105424 | 13 | 170 | 1.6 | 3.2 | 0.00 | 0.08 | 0.00 | 85 | 1004.6 |
| 20260506104417 | 14 | 183 | 6.4 | 6.4 | 0.00 | 0.08 | 0.00 | 84 | 1004.6 |
| 20260506103409 | 14 | 131 | 0.0 | 1.6 | 0.00 | 0.08 | 0.00 | 84 | 1004.5 |
| 20260506102401 | 14 | 187 | 1.6 | 1.6 | 0.00 | 0.08 | 0.00 | 85 | 1004.5 |
| 20260506101352 | 13 | 143 | 0.0 | 1.6 | 0.00 | 0.08 | 0.00 | 86 | 1004.6 |
| 20260506100345 | 13 | 151 | 0.0 | 0.0 | 0.00 | 0.08 | 0.00 | 86 | 1004.7 |
| 20260506095332 | 14 | 193 | 4.8 | 6.4 | 0.00 | 0.08 | 0.00 | 85 | 1004.5 |
| 20260506094329 | 15 | 144 | 3.2 | 4.8 | 0.00 | 0.08 | 0.00 | 83 | 1004.4 |
| 20260506093320 | 13 | 266 | 1.6 | 3.2 | 0.00 | 0.08 | 0.00 | 88 | 1004.5 |
| 20260506092256 | 13 | 163 | 4.8 | 6.4 | 0.00 | 0.08 | 0.00 | 88 | 1004.4 |
| 20260506091249 | 13 | 289 | 1.6 | 3.2 | 0.00 | 0.08 | 0.00 | 89 | 1004.7 |
| 20260506090224 | 12 | 184 | 1.6 | 1.6 | 0.00 | 0.08 | 0.00 | 91 | 1004.4 |
| 20260506085217 | 12 | 188 | 3.2 | 4.8 | 0.00 | 0.08 | 0.00 | 91 | 1004.3 |
| 20260506084209 | 12 | 161 | 4.8 | 4.8 | 0.00 | 0.08 | 0.00 | 91 | 1004.2 |
| 20260506083201 | 12 | 259 | 4.8 | 6.4 | 0.00 | 0.08 | 0.00 | 91 | 1004.3 |
| 20260506082153 | 12 | 334 | 1.6 | 3.2 | 0.00 | 0.08 | 0.00 | 91 | 1004.2 |